Time,TemperatureF,DewpointF,PressureIn,WindDirection,WindDirectionDegrees,WindSpeedMPH,WindSpeedGustMPH,Humidity,HourlyPrecipIn,Conditions,Clouds,dailyrainin,SoftwareType,DateUTC
2013-07-15 08:22:00,53.0,52.0,25.83,NNW,335,5.0,16.0,97,0.00,,,0.00,,2013-07-15 15:22:00,
2013-07-15 08:40:00,53.0,52.0,25.83,NNW,335,5.0,16.0,97,0.00,,,0.00,,2013-07-15 15:40:00,
2013-07-15 08:47:00,53.0,52.0,25.83,NW,324,7.0,16.0,97,0.00,,,0.00,,2013-07-15 15:47:00,
2013-07-15 08:53:00,53.0,52.0,25.83,NNW,328,11.0,19.0,96,0.00,,,0.00,,2013-07-15 15:53:00,
2013-07-15 09:13:00,53.0,52.0,25.83,NW,322,7.0,14.0,96,0.00,,,0.00,,2013-07-15 16:13:00,
2013-07-15 09:22:00,53.0,52.0,25.83,NW,322,7.0,14.0,96,0.00,,,0.00,,2013-07-15 16:22:00,
2013-07-15 09:32:00,53.0,52.0,25.83,NW,322,7.0,14.0,96,0.00,,,0.00,,2013-07-15 16:32:00,
2013-07-15 09:52:00,54.0,52.0,25.83,NW,318,12.0,21.0,93,0.00,,,0.00,,2013-07-15 16:52:00,
2013-07-15 10:02:00,54.0,52.0,25.83,NW,318,12.0,21.0,93,0.00,,,0.00,,2013-07-15 17:02:00,
2013-07-15 10:13:00,54.0,52.0,25.83,NW,318,12.0,21.0,93,0.00,,,0.00,,2013-07-15 17:13:00,
2013-07-15 10:22:00,54.0,52.0,25.83,NW,318,12.0,21.0,93,0.00,,,0.00,,2013-07-15 17:22:00,
2013-07-15 10:36:00,55.0,52.0,25.83,NW,320,9.0,18.0,91,0.00,,,0.00,,2013-07-15 17:36:00,
2013-07-15 10:50:00,55.0,52.0,25.83,NW,320,9.0,18.0,91,0.00,,,0.00,,2013-07-15 17:50:00,
2013-07-15 11:02:00,56.0,53.0,25.83,NW,324,5.0,14.0,89,0.00,,,0.00,,2013-07-15 18:02:00,
2013-07-15 11:23:00,56.0,53.0,25.83,NW,324,5.0,14.0,89,0.00,,,0.00,,2013-07-15 18:23:00,
2013-07-15 11:44:00,56.0,53.0,25.83,NW,321,9.0,18.0,90,0.00,,,0.00,,2013-07-15 18:44:00,
2013-07-15 11:58:00,56.0,53.0,25.83,NW,325,8.0,18.0,90,0.00,,,0.00,,2013-07-15 18:58:00,
2013-07-15 12:04:00,56.0,53.0,25.83,NW,325,8.0,18.0,90,0.00,,,0.00,,2013-07-15 19:04:00,
2013-07-15 12:11:00,56.0,53.0,25.83,NW,321,9.0,24.0,90,0.00,,,0.00,,2013-07-15 19:11:00,
2013-07-15 12:22:00,56.0,53.0,25.83,NW,321,9.0,24.0,90,0.00,,,0.00,,2013-07-15 19:22:00,
2013-07-15 12:33:00,56.0,53.0,25.83,NW,321,9.0,24.0,90,0.00,,,0.00,,2013-07-15 19:33:00,
2013-07-15 13:04:00,57.0,53.0,25.83,NW,324,9.0,28.0,88,0.00,,,0.00,,2013-07-15 20:04:00,
2013-07-15 13:22:00,58.0,54.0,25.83,NW,316,7.0,20.0,88,0.00,,,0.00,,2013-07-15 20:22:00,
2013-07-15 13:43:00,58.0,54.0,25.83,NW,316,7.0,20.0,88,0.00,,,0.00,,2013-07-15 20:43:00,
2013-07-15 14:02:00,57.0,53.0,25.83,NW,311,10.0,23.0,88,0.00,,,0.00,,2013-07-15 21:02:00,
2013-07-15 14:12:00,57.0,53.0,25.83,NW,311,10.0,23.0,88,0.00,,,0.00,,2013-07-15 21:12:00,
2013-07-15 14:23:00,56.0,53.0,25.83,NW,313,10.0,21.0,91,0.00,,,0.00,,2013-07-15 21:23:00,
2013-07-15 14:32:00,55.0,53.0,25.83,NW,314,9.0,22.0,92,0.00,,,0.00,,2013-07-15 21:32:00,
2013-07-15 15:02:00,54.0,52.0,25.83,WNW,302,11.0,22.0,94,0.00,,,0.00,,2013-07-15 22:02:00,
2013-07-15 15:33:00,54.0,52.0,25.83,NW,306,11.0,25.0,94,0.00,,,0.00,,2013-07-15 22:33:00,
2013-07-15 15:43:00,53.0,52.0,25.83,NW,312,10.0,22.0,95,0.00,,,0.00,,2013-07-15 22:43:00,
2013-07-15 15:54:00,53.0,52.0,25.83,NW,312,10.0,22.0,95,0.00,,,0.00,,2013-07-15 22:54:00,
2013-07-15 16:02:00,53.0,52.0,25.83,NW,310,10.0,21.0,96,0.00,,,0.00,,2013-07-15 23:02:00,
2013-07-15 16:34:00,53.0,52.0,25.83,NW,313,9.0,20.0,96,0.00,,,0.00,,2013-07-15 23:34:00,
2013-07-15 16:43:00,53.0,52.0,25.83,NW,326,8.0,19.0,96,0.00,,,0.00,,2013-07-15 23:43:00,
2013-07-15 16:53:00,53.0,52.0,25.83,NW,326,8.0,19.0,96,0.00,,,0.00,,2013-07-15 23:53:00,
2013-07-15 17:02:00,53.0,52.0,25.83,NW,326,8.0,19.0,96,0.00,,,0.00,,2013-07-16 00:02:00,
2013-07-15 17:12:00,53.0,52.0,25.83,NW,326,8.0,19.0,96,0.00,,,0.00,,2013-07-16 00:12:00,
2013-07-15 17:22:00,53.0,52.0,25.83,NW,317,5.0,19.0,97,0.00,,,0.00,,2013-07-16 00:22:00,
2013-07-15 17:33:00,54.0,53.0,25.83,NW,309,5.0,16.0,97,0.00,,,0.00,,2013-07-16 00:33:00,
2013-07-15 17:43:00,54.0,53.0,25.83,NW,304,6.0,17.0,97,0.00,,,0.00,,2013-07-16 00:43:00,
2013-07-15 17:52:00,54.0,53.0,25.83,NNW,329,5.0,19.0,97,0.00,,,0.00,,2013-07-16 00:52:00,
2013-07-15 18:02:00,53.0,52.0,25.83,NW,325,6.0,15.0,97,0.00,,,0.00,,2013-07-16 01:02:00,
2013-07-15 18:12:00,53.0,52.0,25.83,NW,325,6.0,15.0,97,0.00,,,0.00,,2013-07-16 01:12:00,
2013-07-15 18:23:00,53.0,52.0,25.83,NW,325,6.0,15.0,97,0.00,,,0.00,,2013-07-16 01:23:00,
2013-07-15 18:32:00,53.0,52.0,25.83,NW,325,6.0,15.0,97,0.00,,,0.00,,2013-07-16 01:32:00,
2013-07-15 18:43:00,54.0,53.0,25.83,NNW,327,7.0,15.0,96,0.00,,,0.00,,2013-07-16 01:43:00,
2013-07-15 19:00:00,54.0,53.0,25.83,NW,320,8.0,16.0,96,0.00,,,0.00,,2013-07-16 02:00:00,
2013-07-15 19:11:00,54.0,53.0,25.83,NW,320,8.0,16.0,96,0.00,,,0.00,,2013-07-16 02:11:00,
2013-07-15 19:23:00,55.0,54.0,25.83,NW,309,7.0,16.0,95,0.00,,,0.00,,2013-07-16 02:23:00,
2013-07-15 19:34:00,55.0,54.0,25.83,NW,309,7.0,16.0,95,0.00,,,0.00,,2013-07-16 02:34:00,
2013-07-15 19:44:00,55.0,54.0,25.83,NW,309,7.0,16.0,95,0.00,,,0.00,,2013-07-16 02:44:00,